HULIANWANG DIGUI-51

导读

HULIANWANG DIGUI-51(低轨互联网51星)是中国于2025年8月4日发射的低轨互联网卫星,隶属于中国低轨卫星互联网星座建设序列。该卫星运行于近地轨道,依托低轨近地的通信优势,可为全球偏远地区、航空航海场景提供低延迟高速互联网接入,补充地面网络覆盖盲区,也可在应急通信场景中快速搭建通信链路,推动我国天地一体化信息网络建设进程。

基本信息
目录编号:
65108
目录名称:
HULIANWANG DIGUI-51
国际标识:
2025-168C
轨道中心:
EARTH
卫星名称:
HULIANWANG DIGUI-51
卫星全名:
HULIANWANG DIGUI-51
卫星状态:
在轨 (已飞行312 天)
发射日期:
2025-08-04 UTC
国别 :
中国 (CN)
星等 :
--
轨道信息
数据来源 国际轨道数据 AOE轨道数据
星历时间 2026-06-12T14:11:05+0800
13小时前
查看轨道信息
2026-06-11T16:00:00+0800
1天前
查看轨道信息
半长轴 7527.458km 7527.46km
偏心率 0.0010585 0.0010641
轨道倾角 50.005° 50.006°
近地点辐角 75.982° 72.870°
升交点赤经 343.514° 346.830°
平近点角 284.223° 180.985°
近地点 1141.353km 1141.313km
远地点 1157.289km 1157.333km
周期 108.326分钟 108.326分钟
每日圈数 13.293222 13.293217
详细信息
使用方式:
暂无
2D轨道图
3D轨道图
轨道高度分析图
轨道倾角分析图
轨道综合分析图
查看轨道综合分析图